HST 1 20580U 90037B 25039.71933748 .00009365 00000-0 37919-3 0 9990 2 20580 28.4660 194.3498 0002962 99.1209 260.9720 15.22925076713062 ISS (ZARYA) 1 25544U 98067A 25040.52604927 .00016052 00000-0 28908-3 0 9990 2 25544 51.6375 219.3277 0003509 293.1053 104.7111 15.49956910495361 CXO 1 25867U 99040B 25042.50519223 .00000788 00000-0 00000+0 0 9992 2 25867 46.6977 136.1984 8606811 307.0088 0.3565 0.37802703 26622